+ View the NASA Portal
+ Center for Near-Earth Object Studies
IMPORTANT:
The SSD Announcement email list is now available. Major changes are coming in the near future, including possible hostname and/or URL changes. To be notified of such changes, subscribe to this email list.
Please visit
this page
for more details.
Don't show this message again
JPL Small-Body Database Browser
Search:
[
help
]
312099 (2007 TC131)
Classification:
Main-belt Asteroid
SPK-ID:
2312099
[
Ephemeris
|
Orbit Diagram
|
Orbital Elements
|
Mission Design
|
Physical Parameters
|
Discovery Circumstances
]
[ show orbit diagram ]
Orbital Elements at Epoch 2458600.5 (2019-Apr-27.0) TDB
Reference:
JPL 10
(heliocentric ecliptic J2000)
Element
Value
Uncertainty (1-sigma)
Units
e
.1326574541817089
7.3198e-08
a
2.393426064456297
2.2472e-08
au
q
2.075920255973378
1.7869e-07
au
i
1.3729776657512
7.2299e-06
deg
node
20.63530442903389
0.00028748
deg
peri
138.0492495762479
0.00028853
deg
M
289.3028689311442
2.7289e-05
deg
t
p
2458866.099798138799
(2020-Jan-17.59979814)
0.00010414
TDB
period
1352.472524476873
3.70
1.9048e-05
5.215e-08
d
yr
n
.2661791596389327
3.7488e-09
deg/d
Q
2.710931872939217
2.5454e-08
au
Orbit Determination Parameters
# obs. used (total)
128
data-arc span
5500 days (15.06 yr)
first obs. used
2003-09-29
last obs. used
2018-10-20
planetary ephem.
DE431
SB-pert. ephem.
SB431-N16
condition code
0
norm. resid. RMS
.67688
source
ORB
producer
Otto Matic
solution date
2018-Oct-31 04:40:26
Additional Information
Earth MOID
= 1.08559 au
Jupiter MOID
= 2.27097 au
T_jup
= 3.518
[ show covariance matrix ]
[
Ephemeris
|
Orbit Diagram
|
Orbital Elements
|
Mission Design
|
Physical Parameters
|
Discovery Circumstances
]
Physical Parameter Table
Parameter
Symbol
Value
Units
Sigma
Reference
Notes
absolute magnitude
H
17.6
n/a
MPO413276
312099 (2007 TC131)
Discovered 2004-Dec-20 by Mt. Lemmon Survey at Mount Lemmon
Reference:
20120109/Numbers.arc
Last Updated:
2012-01-11
Alternate Designations
2007 TC131
= 2011 WK66
[
Ephemeris
|
Orbit Diagram
|
Orbital Elements
|
Mission Design
|
Physical Parameters
|
Discovery Circumstances
]
2019-Dec-11 22:30 UT
(server date/time)
Site Manager:
Ryan S. Park
Webmaster
:
Alan B. Chamberlin